User: anonymous   Login
Location: Unspecified
(0.0000°N, 0.0000°E)
Time: 15:02:10
(UTC+00:00)
Language:

Envisat - Orbit

View from above orbital plane
View from above orbital plane
View from above satellite
View from above satellite

Ground track
Ground track

The orbit data is extracted from the following two-line orbital elements,

1 27386U 02009A   22027.00656404  .00000080  00000-0  39929-4 0  9999
2 27386  98.1691  14.8644 0001168  86.9400 340.6417 14.38071466 43206
Epoch (UTC): 27 January 2022 00:09:27
Eccentricity: 0.0001168
inclination: 98.1691°
perigee height: 764 km
apogee height: 766 km
right ascension of ascending node: 14.8644°
argument of perigee: 86.9400°
revolutions per day: 14.38071466
mean anomaly at epoch: 340.6417°
orbit number at epoch: 4320

The dashed part of the orbit path shows where the satellite is in the earth's shadow,  

DLR